Voltar ao catálogo

STARLINK-5302

AtivoComunicaçõesVLEO
NORAD 56556·PAYLOAD·🇺🇸 United States

Lançado May 14, 2023 de Cape Canaveral Space Force Station

Loading…

Próximas Passagens (próximas 24 horas)

TLE

AtualizadoSource: CelesTrak SupGP

Época: Sep 15, 2026, 02:30 UTC

1 56556C 23065BF  26258.10465278 -.00023708  00000+0 -85896-3 0  2587
2 56556  43.0025 233.7379 0000697 293.2953  15.5527 15.27581072    16

Acompanhe STARLINK-5302 em tempo real com AllMySat

Download on the App Store